Location: Newark
(7.0858°N, 171.3717°E)
Time: 01:56:55
(UTC+00:00)

Transit 4A - Pass Details

Date: 29 November 2020
Orbit: 864 x 980 km, 66.8° (Epoch: 20 January)

Event Time Altitude Azimuth Distance (km) Brightness Sun altitude
Rises 19:42:30 0° 220° (SW) 3,548 10.8 15.5°
Reaches altitude 10° 19:45:14 10° 230° (SW) 2,624 10.1 16.1°
Maximum altitude 19:50:38 33° 292° (WNW) 1,542 8.7 17.3°
Drops below altitude 10° 19:56:10 10° 354° (N) 2,687 10.1 18.6°
Sets 19:59:02 0° 4° (N) 3,646 10.8 19.2°
